Time,TemperatureF,DewpointF,PressureIn,WindDirection,WindDirectionDegrees,WindSpeedMPH,WindSpeedGustMPH,Humidity,HourlyPrecipIn,Conditions,Clouds,dailyrainin,SoftwareType,DateUTC
2013-04-06 00:00:00,33.4,24.7,30.20,ESE,104,4.0,4.0,70,0.00,,,0.00,Wunderground v.1.15,2013-04-06 04:00:00,
2013-04-06 00:04:00,33.3,24.6,30.20,ESE,104,4.0,4.0,70,0.00,,,0.00,Wunderground v.1.15,2013-04-06 04:04:00,
2013-04-06 00:06:00,33.2,24.5,30.20,ESE,104,3.0,4.0,70,0.00,,,0.00,Wunderground v.1.15,2013-04-06 04:06:00,
2013-04-06 00:12:00,33.1,24.7,30.20,ESE,104,3.0,3.0,71,0.00,,,0.00,Wunderground v.1.15,2013-04-06 04:12:00,
2013-04-06 00:17:00,32.9,24.5,30.21,ESE,104,2.0,3.0,71,0.00,,,0.00,Wunderground v.1.15,2013-04-06 04:17:00,
2013-04-06 00:22:00,32.8,24.4,30.21,ESE,104,2.0,3.0,71,0.00,,,0.00,Wunderground v.1.15,2013-04-06 04:22:00,
2013-04-06 00:28:00,32.6,24.6,30.20,ESE,104,3.0,4.0,72,0.00,,,0.00,Wunderground v.1.15,2013-04-06 04:28:00,
2013-04-06 00:34:00,32.5,24.5,30.20,ESE,104,3.0,4.0,72,0.00,,,0.00,Wunderground v.1.15,2013-04-06 04:34:00,
2013-04-06 00:39:00,32.5,24.5,30.20,ESE,104,3.0,4.0,72,0.00,,,0.00,Wunderground v.1.15,2013-04-06 04:39:00,
2013-04-06 00:45:00,32.5,24.5,30.20,ESE,104,3.0,5.0,72,0.00,,,0.00,Wunderground v.1.15,2013-04-06 04:45:00,
2013-04-06 00:51:00,32.4,24.4,30.20,ESE,103,4.0,5.0,72,0.00,,,0.00,Wunderground v.1.15,2013-04-06 04:51:00,
2013-04-06 00:56:00,32.4,24.4,30.20,ESE,103,4.0,5.0,72,0.00,,,0.00,Wunderground v.1.15,2013-04-06 04:56:00,
2013-04-06 01:02:00,32.2,24.5,30.19,ESE,102,3.0,5.0,73,0.00,,,0.00,Wunderground v.1.15,2013-04-06 05:02:00,
2013-04-06 01:08:00,32.1,24.4,30.20,ESE,102,3.0,5.0,73,0.00,,,0.00,Wunderground v.1.15,2013-04-06 05:08:00,
2013-04-06 01:13:00,32.1,24.4,30.20,ESE,102,3.0,3.0,73,0.00,,,0.00,Wunderground v.1.15,2013-04-06 05:13:00,
2013-04-06 01:19:00,32.0,24.3,30.21,ESE,102,3.0,4.0,73,0.00,,,0.00,Wunderground v.1.15,2013-04-06 05:19:00,
2013-04-06 01:24:00,31.9,24.2,30.21,ESE,102,3.0,3.0,73,0.00,,,0.00,Wunderground v.1.15,2013-04-06 05:24:00,
2013-04-06 01:30:00,31.8,24.5,30.21,ESE,102,3.0,3.0,74,0.00,,,0.00,Wunderground v.1.15,2013-04-06 05:30:00,
2013-04-06 01:35:00,31.7,24.4,30.21,ESE,102,3.0,4.0,74,0.00,,,0.00,Wunderground v.1.15,2013-04-06 05:35:00,
2013-04-06 01:40:00,31.6,24.3,30.20,ESE,102,3.0,4.0,74,0.00,,,0.00,Wunderground v.1.15,2013-04-06 05:40:00,
2013-04-06 01:45:00,31.5,24.2,30.21,ESE,102,3.0,5.0,74,0.00,,,0.00,Wunderground v.1.15,2013-04-06 05:45:00,
2013-04-06 01:51:00,31.4,24.1,30.21,ESE,102,3.0,3.0,74,0.00,,,0.00,Wunderground v.1.15,2013-04-06 05:51:00,
2013-04-06 01:56:00,31.4,24.1,30.21,ESE,102,3.0,3.0,74,0.00,,,0.00,Wunderground v.1.15,2013-04-06 05:56:00,
2013-04-06 02:01:00,31.3,24.0,30.21,ESE,102,2.0,3.0,74,0.00,,,0.00,Wunderground v.1.15,2013-04-06 06:01:00,
2013-04-06 02:07:00,31.2,24.2,30.22,ESE,102,2.0,3.0,75,0.00,,,0.00,Wunderground v.1.15,2013-04-06 06:07:00,
2013-04-06 02:13:00,31.2,24.2,30.22,ESE,102,2.0,3.0,75,0.00,,,0.00,Wunderground v.1.15,2013-04-06 06:13:00,
2013-04-06 02:18:00,31.2,24.2,30.22,ESE,102,2.0,3.0,75,0.00,,,0.00,Wunderground v.1.15,2013-04-06 06:18:00,
2013-04-06 02:24:00,31.1,23.8,30.22,ESE,102,2.0,3.0,74,0.00,,,0.00,Wunderground v.1.15,2013-04-06 06:24:00,
2013-04-06 02:29:00,31.1,23.8,30.22,ESE,102,2.0,4.0,74,0.00,,,0.00,Wunderground v.1.15,2013-04-06 06:29:00,
2013-04-06 02:35:00,31.0,23.7,30.22,ESE,102,2.0,3.0,74,0.00,,,0.00,Wunderground v.1.15,2013-04-06 06:35:00,
2013-04-06 02:40:00,31.0,23.7,30.22,ESE,102,2.0,3.0,74,0.00,,,0.00,Wunderground v.1.15,2013-04-06 06:40:00,
2013-04-06 02:46:00,31.0,23.7,30.22,ESE,102,3.0,3.0,74,0.00,,,0.00,Wunderground v.1.15,2013-04-06 06:46:00,
2013-04-06 02:52:00,30.8,23.5,30.22,ESE,102,3.0,3.0,74,0.00,,,0.00,Wunderground v.1.15,2013-04-06 06:52:00,
2013-04-06 02:57:00,30.7,23.4,30.22,ESE,102,3.0,3.0,74,0.00,,,0.00,Wunderground v.1.15,2013-04-06 06:57:00,
2013-04-06 03:02:00,30.7,23.7,30.22,ESE,102,2.0,2.0,75,0.00,,,0.00,Wunderground v.1.15,2013-04-06 07:02:00,
2013-04-06 03:08:00,30.6,23.6,30.22,ESE,102,2.0,2.0,75,0.00,,,0.00,Wunderground v.1.15,2013-04-06 07:08:00,
2013-04-06 03:14:00,30.7,23.7,30.22,ESE,102,2.0,3.0,75,0.00,,,0.00,Wunderground v.1.15,2013-04-06 07:14:00,
2013-04-06 03:19:00,30.7,23.7,30.22,ESE,102,2.0,5.0,75,0.00,,,0.00,Wunderground v.1.15,2013-04-06 07:19:00,
2013-04-06 03:24:00,30.8,23.5,30.22,ESE,102,3.0,3.0,74,0.00,,,0.00,Wunderground v.1.15,2013-04-06 07:24:00,
2013-04-06 03:29:00,30.9,23.3,30.22,ESE,102,3.0,5.0,73,0.00,,,0.00,Wunderground v.1.15,2013-04-06 07:29:00,
2013-04-06 03:35:00,31.1,23.1,30.23,ESE,102,2.0,3.0,72,0.00,,,0.00,Wunderground v.1.15,2013-04-06 07:35:00,
2013-04-06 03:40:00,31.1,22.8,30.23,ESE,102,3.0,3.0,71,0.00,,,0.00,Wunderground v.1.15,2013-04-06 07:40:00,
2013-04-06 03:46:00,31.2,22.9,30.23,ESE,102,3.0,4.0,71,0.00,,,0.00,Wunderground v.1.15,2013-04-06 07:46:00,
2013-04-06 03:51:00,31.3,22.6,30.23,ESE,102,3.0,4.0,70,0.00,,,0.00,Wunderground v.1.15,2013-04-06 07:51:00,
2013-04-06 03:57:00,31.4,22.7,30.23,ESE,102,3.0,5.0,70,0.00,,,0.00,Wunderground v.1.15,2013-04-06 07:57:00,
2013-04-06 04:03:00,31.5,22.5,30.22,ESE,102,3.0,4.0,69,0.00,,,0.00,Wunderground v.1.15,2013-04-06 08:03:00,
2013-04-06 04:08:00,31.6,22.6,30.22,ESE,103,3.0,4.0,69,0.00,,,0.00,Wunderground v.1.15,2013-04-06 08:08:00,
2013-04-06 04:13:00,31.7,22.3,30.22,ESE,103,4.0,5.0,68,0.00,,,0.00,Wunderground v.1.15,2013-04-06 08:13:00,
2013-04-06 04:19:00,31.8,22.4,30.22,ESE,102,3.0,5.0,68,0.00,,,0.00,Wunderground v.1.15,2013-04-06 08:19:00,
2013-04-06 04:24:00,31.9,22.5,30.22,ESE,103,3.0,4.0,68,0.00,,,0.00,Wunderground v.1.15,2013-04-06 08:24:00,
2013-04-06 04:30:00,31.9,22.2,30.22,East,101,4.0,5.0,67,0.00,,,0.00,Wunderground v.1.15,2013-04-06 08:30:00,
2013-04-06 04:36:00,31.9,22.2,30.22,East,101,4.0,5.0,67,0.00,,,0.00,Wunderground v.1.15,2013-04-06 08:36:00,
2013-04-06 04:42:00,31.9,21.8,30.22,East,101,4.0,4.0,66,0.00,,,0.00,Wunderground v.1.15,2013-04-06 08:42:00,
2013-04-06 04:47:00,32.0,21.9,30.22,East,101,4.0,6.0,66,0.00,,,0.00,Wunderground v.1.15,2013-04-06 08:47:00,
2013-04-06 04:52:00,32.0,21.9,30.22,East,101,4.0,5.0,66,0.00,,,0.00,Wunderground v.1.15,2013-04-06 08:52:00,
2013-04-06 04:58:00,32.0,21.9,30.22,East,101,4.0,6.0,66,0.00,,,0.00,Wunderground v.1.15,2013-04-06 08:58:00,
2013-04-06 05:03:00,32.0,21.9,30.22,East,101,4.0,4.0,66,0.00,,,0.00,Wunderground v.1.15,2013-04-06 09:03:00,
2013-04-06 05:08:00,32.0,21.6,30.22,East,99,4.0,7.0,65,0.00,,,0.00,Wunderground v.1.15,2013-04-06 09:08:00,
2013-04-06 05:13:00,32.0,21.9,30.22,East,99,4.0,5.0,66,0.00,,,0.00,Wunderground v.1.15,2013-04-06 09:13:00,
2013-04-06 05:19:00,32.0,21.6,30.22,East,99,4.0,5.0,65,0.00,,,0.00,Wunderground v.1.15,2013-04-06 09:19:00,
2013-04-06 05:24:00,32.1,21.7,30.23,East,101,4.0,5.0,65,0.00,,,0.00,Wunderground v.1.15,2013-04-06 09:24:00,
2013-04-06 05:30:00,32.2,21.7,30.23,ESE,105,4.0,5.0,65,0.00,,,0.00,Wunderground v.1.15,2013-04-06 09:30:00,
2013-04-06 05:35:00,32.3,21.8,30.23,ESE,102,4.0,8.0,65,0.00,,,0.00,Wunderground v.1.15,2013-04-06 09:35:00,
2013-04-06 05:40:00,32.4,21.6,30.23,ESE,103,4.0,4.0,64,0.00,,,0.00,Wunderground v.1.15,2013-04-06 09:40:00,
2013-04-06 05:45:00,32.4,21.6,30.23,ESE,104,4.0,5.0,64,0.00,,,0.00,Wunderground v.1.15,2013-04-06 09:45:00,
2013-04-06 05:51:00,32.4,21.6,30.23,ESE,105,4.0,4.0,64,0.00,,,0.00,Wunderground v.1.15,2013-04-06 09:51:00,
2013-04-06 05:56:00,32.5,21.7,30.23,ESE,107,4.0,5.0,64,0.00,,,0.00,Wunderground v.1.15,2013-04-06 09:56:00,
2013-04-06 06:02:00,32.7,21.9,30.23,ESE,111,4.0,4.0,64,0.00,,,0.00,Wunderground v.1.15,2013-04-06 10:02:00,
2013-04-06 06:08:00,32.7,21.9,30.23,ESE,113,4.0,5.0,64,0.00,,,0.00,Wunderground v.1.15,2013-04-06 10:08:00,
2013-04-06 06:14:00,32.8,22.0,30.23,ESE,115,3.0,5.0,64,0.00,,,0.00,Wunderground v.1.15,2013-04-06 10:14:00,
2013-04-06 06:20:00,32.8,21.6,30.23,ESE,111,5.0,8.0,63,0.00,,,0.00,Wunderground v.1.15,2013-04-06 10:20:00,
2013-04-06 06:25:00,32.7,21.5,30.23,ESE,111,5.0,5.0,63,0.00,,,0.00,Wunderground v.1.15,2013-04-06 10:25:00,
2013-04-06 06:31:00,32.9,22.0,30.23,ESE,110,4.0,4.0,64,0.00,,,0.00,Wunderground v.1.15,2013-04-06 10:31:00,
2013-04-06 06:37:00,32.9,22.0,30.23,ESE,111,4.0,4.0,64,0.00,,,0.00,Wunderground v.1.15,2013-04-06 10:37:00,
2013-04-06 06:42:00,32.9,21.7,30.23,ESE,107,4.0,7.0,63,0.00,,,0.00,Wunderground v.1.15,2013-04-06 10:42:00,
2013-04-06 06:48:00,32.9,21.7,30.23,ESE,106,5.0,7.0,63,0.00,,,0.00,Wunderground v.1.15,2013-04-06 10:48:00,
2013-04-06 06:53:00,33.0,21.8,30.23,ESE,118,4.0,7.0,63,0.00,,,0.00,Wunderground v.1.15,2013-04-06 10:53:00,
2013-04-06 06:59:00,33.1,21.5,30.24,SE,128,4.0,7.0,62,0.00,,,0.00,Wunderground v.1.15,2013-04-06 10:59:00,
2013-04-06 07:04:00,33.2,20.8,30.24,SE,132,4.0,6.0,60,0.00,,,0.00,Wunderground v.1.15,2013-04-06 11:04:00,
2013-04-06 07:10:00,33.3,20.5,30.24,SE,125,4.0,4.0,59,0.00,,,0.00,Wunderground v.1.15,2013-04-06 11:10:00,
2013-04-06 07:15:00,33.3,20.1,30.24,SE,125,3.0,5.0,58,0.00,,,0.00,Wunderground v.1.15,2013-04-06 11:15:00,
2013-04-06 07:21:00,33.4,19.4,30.25,SE,124,3.0,3.0,56,0.00,,,0.00,Wunderground v.1.15,2013-04-06 11:21:00,
2013-04-06 07:26:00,33.5,19.0,30.25,SE,128,3.0,6.0,55,0.00,,,0.00,Wunderground v.1.15,2013-04-06 11:26:00,
2013-04-06 07:32:00,33.7,19.2,30.24,ESE,121,4.0,7.0,55,0.00,,,0.00,Wunderground v.1.15,2013-04-06 11:32:00,
2013-04-06 07:33:00,33.7,18.8,30.24,ESE,119,4.0,7.0,54,0.00,,,0.00,Wunderground v.1.15,2013-04-06 11:33:00,
2013-04-06 07:38:00,33.7,18.4,30.25,ESE,105,5.0,7.0,53,0.00,,,0.00,Wunderground v.1.15,2013-04-06 11:38:00,
2013-04-06 07:44:00,33.8,17.6,30.25,ESE,105,4.0,7.0,51,0.00,,,0.00,Wunderground v.1.15,2013-04-06 11:44:00,
2013-04-06 07:50:00,34.0,17.7,30.25,SE,138,4.0,7.0,51,0.00,,,0.00,Wunderground v.1.15,2013-04-06 11:50:00,
2013-04-06 07:56:00,33.9,16.7,30.25,SE,126,6.0,10.0,49,0.00,,,0.00,Wunderground v.1.15,2013-04-06 11:56:00,
2013-04-06 08:02:00,33.9,16.7,30.25,East,96,7.0,7.0,49,0.00,,,0.00,Wunderground v.1.15,2013-04-06 12:02:00,
2013-04-06 08:07:00,33.9,16.7,30.25,SSE,150,6.0,13.0,49,0.00,,,0.00,Wunderground v.1.15,2013-04-06 12:07:00,
2013-04-06 08:12:00,33.8,16.2,30.25,SE,136,6.0,6.0,48,0.00,,,0.00,Wunderground v.1.15,2013-04-06 12:12:00,
2013-04-06 08:17:00,33.9,16.7,30.25,ESE,103,7.0,9.0,49,0.00,,,0.00,Wunderground v.1.15,2013-04-06 12:17:00,
2013-04-06 08:23:00,34.1,16.9,30.25,ESE,117,7.0,7.0,49,0.00,,,0.00,Wunderground v.1.15,2013-04-06 12:23:00,
2013-04-06 08:29:00,34.1,16.4,30.24,East,88,7.0,11.0,48,0.00,,,0.00,Wunderground v.1.15,2013-04-06 12:29:00,
2013-04-06 08:34:00,34.1,16.4,30.24,East,87,9.0,10.0,48,0.00,,,0.00,Wunderground v.1.15,2013-04-06 12:34:00,
2013-04-06 08:39:00,34.2,16.5,30.24,East,91,8.0,10.0,48,0.00,,,0.00,Wunderground v.1.15,2013-04-06 12:39:00,
2013-04-06 08:45:00,34.4,17.2,30.25,East,101,6.0,9.0,49,0.00,,,0.00,Wunderground v.1.15,2013-04-06 12:45:00,
2013-04-06 08:50:00,34.4,17.7,30.24,ESE,123,7.0,10.0,50,0.00,,,0.00,Wunderground v.1.15,2013-04-06 12:50:00,
2013-04-06 08:55:00,34.7,18.4,30.24,East,96,7.0,9.0,51,0.00,,,0.00,Wunderground v.1.15,2013-04-06 12:55:00,
2013-04-06 09:00:00,34.8,18.5,30.24,ESE,103,7.0,7.0,51,0.00,,,0.00,Wunderground v.1.15,2013-04-06 13:00:00,
2013-04-06 09:05:00,35.0,19.1,30.25,East,94,7.0,9.0,52,0.00,,,0.00,Wunderground v.1.15,2013-04-06 13:05:00,
2013-04-06 09:11:00,35.1,19.2,30.25,ESE,104,7.0,8.0,52,0.00,,,0.00,Wunderground v.1.15,2013-04-06 13:11:00,
2013-04-06 09:16:00,35.2,19.8,30.25,SE,136,7.0,12.0,53,0.00,,,0.00,Wunderground v.1.15,2013-04-06 13:16:00,
2013-04-06 09:22:00,35.2,20.2,30.25,ESE,116,6.0,6.0,54,0.00,,,0.00,Wunderground v.1.15,2013-04-06 13:22:00,
2013-04-06 09:28:00,35.1,20.1,30.25,ESE,117,7.0,12.0,54,0.00,,,0.00,Wunderground v.1.15,2013-04-06 13:28:00,
2013-04-06 09:33:00,35.2,21.1,30.25,SSE,164,7.0,8.0,56,0.00,,,0.00,Wunderground v.1.15,2013-04-06 13:33:00,
2013-04-06 09:39:00,35.5,21.3,30.25,SE,140,6.0,8.0,56,0.00,,,0.00,Wunderground v.1.15,2013-04-06 13:39:00,
2013-04-06 09:45:00,35.4,21.2,30.24,SE,137,6.0,8.0,56,0.00,,,0.00,Wunderground v.1.15,2013-04-06 13:45:00,
2013-04-06 09:51:00,35.3,21.2,30.24,NE,51,7.0,8.0,56,0.00,,,0.00,Wunderground v.1.15,2013-04-06 13:51:00,
2013-04-06 09:56:00,35.3,21.6,30.24,South,169,7.0,9.0,57,0.00,,,0.00,Wunderground v.1.15,2013-04-06 13:56:00,
2013-04-06 10:02:00,35.3,21.6,30.23,SE,142,8.0,14.0,57,0.00,,,0.00,Wunderground v.1.15,2013-04-06 14:02:00,
2013-04-06 10:08:00,35.3,21.6,30.23,South,169,8.0,14.0,57,0.00,,,0.00,Wunderground v.1.15,2013-04-06 14:08:00,
2013-04-06 10:13:00,35.4,21.7,30.23,ESE,121,6.0,11.0,57,0.00,,,0.00,Wunderground v.1.15,2013-04-06 14:13:00,
2013-04-06 10:19:00,35.2,21.9,30.23,ENE,76,7.0,14.0,58,0.00,,,0.00,Wunderground v.1.15,2013-04-06 14:19:00,
2013-04-06 10:25:00,35.3,22.0,30.22,ESE,117,8.0,15.0,58,0.00,,,0.00,Wunderground v.1.15,2013-04-06 14:25:00,
2013-04-06 10:30:00,35.4,22.5,30.22,SE,130,8.0,8.0,59,0.00,,,0.00,Wunderground v.1.15,2013-04-06 14:30:00,
2013-04-06 10:36:00,35.9,23.4,30.22,ESE,121,7.0,10.0,60,0.00,,,0.00,Wunderground v.1.15,2013-04-06 14:36:00,
2013-04-06 10:42:00,36.0,23.0,30.21,ESE,104,8.0,8.0,59,0.00,,,0.00,Wunderground v.1.15,2013-04-06 14:42:00,
2013-04-06 10:47:00,36.2,22.8,30.22,ENE,74,9.0,11.0,58,0.00,,,0.00,Wunderground v.1.15,2013-04-06 14:47:00,
2013-04-06 10:53:00,36.6,22.8,30.21,SE,132,9.0,10.0,57,0.00,,,0.00,Wunderground v.1.15,2013-04-06 14:53:00,
2013-04-06 10:59:00,36.8,22.6,30.21,SSE,158,9.0,11.0,56,0.00,,,0.00,Wunderground v.1.15,2013-04-06 14:59:00,
2013-04-06 11:05:00,37.3,22.6,30.21,ENE,76,9.0,11.0,55,0.00,,,0.00,Wunderground v.1.15,2013-04-06 15:05:00,
2013-04-06 11:11:00,37.6,22.9,30.21,SSE,159,8.0,9.0,55,0.00,,,0.00,Wunderground v.1.15,2013-04-06 15:11:00,
2013-04-06 11:17:00,38.1,22.9,30.21,SSE,161,6.0,9.0,54,0.00,,,0.00,Wunderground v.1.15,2013-04-06 15:17:00,
2013-04-06 11:22:00,38.4,22.3,30.21,SE,133,7.0,11.0,52,0.00,,,0.00,Wunderground v.1.15,2013-04-06 15:22:00,
2013-04-06 11:28:00,38.2,21.2,30.22,SSE,158,9.0,15.0,50,0.00,,,0.00,Wunderground v.1.15,2013-04-06 15:28:00,
2013-04-06 11:33:00,38.3,21.3,30.21,East,99,9.0,14.0,50,0.00,,,0.00,Wunderground v.1.15,2013-04-06 15:33:00,
2013-04-06 11:38:00,38.6,21.1,30.21,SE,145,9.0,14.0,49,0.00,,,0.00,Wunderground v.1.15,2013-04-06 15:38:00,
2013-04-06 11:44:00,39.0,20.9,30.21,ESE,105,8.0,10.0,48,0.00,,,0.00,Wunderground v.1.15,2013-04-06 15:44:00,
2013-04-06 11:49:00,39.1,20.5,30.21,South,180,8.0,15.0,47,0.00,,,0.00,Wunderground v.1.15,2013-04-06 15:49:00,
2013-04-06 11:54:00,39.6,21.0,30.20,ESE,116,8.0,9.0,47,0.00,,,0.00,Wunderground v.1.15,2013-04-06 15:54:00,
2013-04-06 12:00:00,40.1,21.0,30.20,SE,128,9.0,9.0,46,0.00,,,0.00,Wunderground v.1.15,2013-04-06 16:00:00,
2013-04-06 12:06:00,40.4,21.2,30.20,East,86,9.0,15.0,46,0.00,,,0.00,Wunderground v.1.15,2013-04-06 16:06:00,
2013-04-06 12:12:00,40.6,20.9,30.20,SSW,192,9.0,9.0,45,0.00,,,0.00,Wunderground v.1.15,2013-04-06 16:12:00,
2013-04-06 12:17:00,40.7,21.5,30.19,ESE,109,9.0,17.0,46,0.00,,,0.00,Wunderground v.1.15,2013-04-06 16:17:00,
2013-04-06 12:23:00,41.0,22.3,30.19,East,96,9.0,14.0,47,0.00,,,0.00,Wunderground v.1.15,2013-04-06 16:23:00,
2013-04-06 12:28:00,41.1,21.9,30.19,ESE,107,10.0,19.0,46,0.00,,,0.00,Wunderground v.1.15,2013-04-06 16:28:00,
2013-04-06 12:34:00,41.1,21.3,30.19,SSE,157,10.0,15.0,45,0.00,,,0.00,Wunderground v.1.15,2013-04-06 16:34:00,
2013-04-06 12:39:00,41.5,21.7,30.19,East,101,10.0,15.0,45,0.00,,,0.00,Wunderground v.1.15,2013-04-06 16:39:00,
2013-04-06 12:45:00,42.3,21.9,30.18,East,92,8.0,10.0,44,0.00,,,0.00,Wunderground v.1.15,2013-04-06 16:45:00,
2013-04-06 12:51:00,42.5,21.0,30.18,SE,136,8.0,11.0,42,0.00,,,0.00,Wunderground v.1.15,2013-04-06 16:51:00,
2013-04-06 12:57:00,42.2,20.2,30.18,ESE,120,9.0,11.0,41,0.00,,,0.00,Wunderground v.1.15,2013-04-06 16:57:00,
2013-04-06 13:03:00,42.9,20.2,30.17,SE,139,9.0,9.0,40,0.00,,,0.00,Wunderground v.1.15,2013-04-06 17:03:00,
2013-04-06 13:08:00,42.9,19.6,30.17,SE,139,8.0,20.0,39,0.00,,,0.00,Wunderground v.1.15,2013-04-06 17:08:00,
2013-04-06 13:13:00,42.5,19.3,30.16,South,176,10.0,10.0,39,0.00,,,0.00,Wunderground v.1.15,2013-04-06 17:13:00,
2013-04-06 13:18:00,43.0,19.1,30.17,SE,141,10.0,17.0,38,0.00,,,0.00,Wunderground v.1.15,2013-04-06 17:18:00,
2013-04-06 13:24:00,43.1,19.2,30.16,East,82,10.0,13.0,38,0.00,,,0.00,Wunderground v.1.15,2013-04-06 17:24:00,
2013-04-06 13:29:00,43.5,18.9,30.16,SE,144,10.0,16.0,37,0.00,,,0.00,Wunderground v.1.15,2013-04-06 17:29:00,
2013-04-06 13:35:00,43.9,19.9,30.15,East,94,10.0,14.0,38,0.00,,,0.00,Wunderground v.1.15,2013-04-06 17:35:00,
2013-04-06 13:40:00,44.0,19.4,30.15,SE,142,10.0,16.0,37,0.00,,,0.00,Wunderground v.1.15,2013-04-06 17:40:00,
2013-04-06 13:46:00,44.5,19.2,30.15,ESE,115,9.0,12.0,36,0.00,,,0.00,Wunderground v.1.15,2013-04-06 17:46:00,
2013-04-06 13:52:00,44.2,18.9,30.15,SSE,156,10.0,11.0,36,0.00,,,0.00,Wunderground v.1.15,2013-04-06 17:52:00,
2013-04-06 13:58:00,44.5,19.8,30.14,ENE,71,10.0,11.0,37,0.00,,,0.00,Wunderground v.1.15,2013-04-06 17:58:00,
2013-04-06 14:04:00,44.6,19.9,30.13,SE,137,10.0,15.0,37,0.00,,,0.00,Wunderground v.1.15,2013-04-06 18:04:00,
2013-04-06 14:09:00,44.5,19.8,30.12,SSE,152,10.0,15.0,37,0.00,,,0.00,Wunderground v.1.15,2013-04-06 18:09:00,
2013-04-06 14:14:00,45.2,20.4,30.12,ENE,72,9.0,14.0,37,0.00,,,0.00,Wunderground v.1.15,2013-04-06 18:14:00,
2013-04-06 14:19:00,45.4,20.6,30.11,ESE,110,9.0,14.0,37,0.00,,,0.00,Wunderground v.1.15,2013-04-06 18:19:00,
2013-04-06 14:25:00,45.7,20.9,30.11,SE,135,9.0,10.0,37,0.00,,,0.00,Wunderground v.1.15,2013-04-06 18:25:00,
2013-04-06 14:30:00,46.0,20.5,30.11,SSW,196,8.0,12.0,36,0.00,,,0.00,Wunderground v.1.15,2013-04-06 18:30:00,
2013-04-06 14:35:00,46.0,21.1,30.11,SE,145,7.0,9.0,37,0.00,,,0.00,Wunderground v.1.15,2013-04-06 18:35:00,
2013-04-06 14:40:00,45.9,20.4,30.11,SE,136,8.0,15.0,36,0.00,,,0.00,Wunderground v.1.15,2013-04-06 18:40:00,
2013-04-06 14:46:00,46.3,21.4,30.10,East,100,9.0,9.0,37,0.00,,,0.00,Wunderground v.1.15,2013-04-06 18:46:00,
2013-04-06 14:51:00,46.3,21.4,30.09,East,91,8.0,9.0,37,0.00,,,0.00,Wunderground v.1.15,2013-04-06 18:51:00,
2013-04-06 14:57:00,46.5,21.6,30.08,SE,128,9.0,14.0,37,0.00,,,0.00,Wunderground v.1.15,2013-04-06 18:57:00,
2013-04-06 15:03:00,46.7,21.8,30.08,SSE,161,9.0,10.0,37,0.00,,,0.00,Wunderground v.1.15,2013-04-06 19:03:00,
2013-04-06 15:08:00,47.1,21.5,30.08,SE,126,8.0,10.0,36,0.00,,,0.00,Wunderground v.1.15,2013-04-06 19:08:00,
2013-04-06 15:14:00,47.4,21.7,30.08,SE,142,8.0,9.0,36,0.00,,,0.00,Wunderground v.1.15,2013-04-06 19:14:00,
2013-04-06 15:19:00,47.2,21.6,30.07,SE,125,9.0,13.0,36,0.00,,,0.00,Wunderground v.1.15,2013-04-06 19:19:00,
2013-04-06 15:25:00,47.4,21.7,30.07,ESE,114,9.0,14.0,36,0.00,,,0.00,Wunderground v.1.15,2013-04-06 19:25:00,
2013-04-06 15:31:00,47.8,22.1,30.07,SSE,163,8.0,8.0,36,0.00,,,0.00,Wunderground v.1.15,2013-04-06 19:31:00,
2013-04-06 15:37:00,48.3,22.5,30.06,ESE,105,8.0,11.0,36,0.00,,,0.00,Wunderground v.1.15,2013-04-06 19:37:00,
2013-04-06 15:42:00,48.7,21.5,30.05,ESE,105,8.0,9.0,34,0.00,,,0.00,Wunderground v.1.15,2013-04-06 19:42:00,
2013-04-06 15:48:00,48.3,21.2,30.05,ESE,113,9.0,15.0,34,0.00,,,0.00,Wunderground v.1.15,2013-04-06 19:48:00,
2013-04-06 15:53:00,48.9,22.4,30.04,SSE,159,10.0,14.0,35,0.00,,,0.00,Wunderground v.1.15,2013-04-06 19:53:00,
2013-04-06 15:58:00,49.1,21.9,30.03,SSE,165,9.0,14.0,34,0.00,,,0.00,Wunderground v.1.15,2013-04-06 19:58:00,
2013-04-06 16:04:00,49.1,21.2,30.03,ESE,121,9.0,16.0,33,0.00,,,0.00,Wunderground v.1.15,2013-04-06 20:04:00,
2013-04-06 16:10:00,50.2,22.2,30.02,ESE,112,8.0,8.0,33,0.00,,,0.00,Wunderground v.1.15,2013-04-06 20:10:00,
2013-04-06 16:15:00,50.3,22.3,30.02,ENE,62,7.0,11.0,33,0.00,,,0.00,Wunderground v.1.15,2013-04-06 20:15:00,
2013-04-06 16:21:00,49.7,22.4,30.02,SSE,150,9.0,11.0,34,0.00,,,0.00,Wunderground v.1.15,2013-04-06 20:21:00,
2013-04-06 16:27:00,49.9,22.6,30.02,SSE,148,9.0,15.0,34,0.00,,,0.00,Wunderground v.1.15,2013-04-06 20:27:00,
2013-04-06 16:32:00,50.4,22.3,30.01,SE,138,7.0,8.0,33,0.00,,,0.00,Wunderground v.1.15,2013-04-06 20:32:00,
2013-04-06 16:37:00,50.2,22.9,30.01,East,98,7.0,10.0,34,0.00,,,0.00,Wunderground v.1.15,2013-04-06 20:37:00,
2013-04-06 16:42:00,49.9,22.6,30.00,SE,126,8.0,8.0,34,0.00,,,0.00,Wunderground v.1.15,2013-04-06 20:42:00,
2013-04-06 16:48:00,50.0,22.7,30.00,SE,129,8.0,14.0,34,0.00,,,0.00,Wunderground v.1.15,2013-04-06 20:48:00,
2013-04-06 16:53:00,50.0,23.4,29.99,SE,140,8.0,8.0,35,0.00,,,0.00,Wunderground v.1.15,2013-04-06 20:53:00,
2013-04-06 16:59:00,50.0,23.4,29.99,East,100,7.0,11.0,35,0.00,,,0.00,Wunderground v.1.15,2013-04-06 20:59:00,
2013-04-06 17:05:00,50.1,22.8,29.98,SE,133,7.0,11.0,34,0.00,,,0.00,Wunderground v.1.15,2013-04-06 21:05:00,
2013-04-06 17:10:00,49.8,22.5,29.98,East,80,8.0,9.0,34,0.00,,,0.00,Wunderground v.1.15,2013-04-06 21:10:00,
2013-04-06 17:16:00,49.9,22.6,29.98,ESE,115,8.0,14.0,34,0.00,,,0.00,Wunderground v.1.15,2013-04-06 21:16:00,
2013-04-06 17:22:00,50.0,23.4,29.98,SE,127,7.0,12.0,35,0.00,,,0.00,Wunderground v.1.15,2013-04-06 21:22:00,
2013-04-06 17:27:00,50.1,23.5,29.97,East,94,6.0,12.0,35,0.00,,,0.00,Wunderground v.1.15,2013-04-06 21:27:00,
2013-04-06 17:33:00,49.9,24.0,29.97,SE,141,6.0,12.0,36,0.00,,,0.00,Wunderground v.1.15,2013-04-06 21:33:00,
2013-04-06 17:38:00,50.0,23.4,29.97,East,98,7.0,12.0,35,0.00,,,0.00,Wunderground v.1.15,2013-04-06 21:38:00,
2013-04-06 17:43:00,50.1,23.5,29.97,SE,129,7.0,11.0,35,0.00,,,0.00,Wunderground v.1.15,2013-04-06 21:43:00,
2013-04-06 17:48:00,50.0,22.7,29.96,East,95,7.0,12.0,34,0.00,,,0.00,Wunderground v.1.15,2013-04-06 21:48:00,
2013-04-06 17:53:00,49.8,23.9,29.96,East,97,8.0,8.0,36,0.00,,,0.00,Wunderground v.1.15,2013-04-06 21:53:00,
2013-04-06 17:59:00,49.6,23.0,29.96,East,88,7.0,10.0,35,0.00,,,0.00,Wunderground v.1.15,2013-04-06 21:59:00,
2013-04-06 18:04:00,49.6,23.7,29.95,SSE,150,7.0,9.0,36,0.00,,,0.00,Wunderground v.1.15,2013-04-06 22:04:00,
2013-04-06 18:09:00,49.5,23.6,29.95,ESE,117,7.0,11.0,36,0.00,,,0.00,Wunderground v.1.15,2013-04-06 22:09:00,
2013-04-06 18:14:00,49.4,23.5,29.94,ESE,117,8.0,14.0,36,0.00,,,0.00,Wunderground v.1.15,2013-04-06 22:14:00,
2013-04-06 18:20:00,49.1,23.9,29.94,NNE,26,10.0,13.0,37,0.00,,,0.00,Wunderground v.1.15,2013-04-06 22:20:00,
2013-04-06 18:25:00,49.0,23.2,29.94,ESE,114,11.0,14.0,36,0.00,,,0.00,Wunderground v.1.15,2013-04-06 22:25:00,
2013-04-06 18:31:00,49.0,23.2,29.94,ENE,78,10.0,13.0,36,0.00,,,0.00,Wunderground v.1.15,2013-04-06 22:31:00,
2013-04-06 18:37:00,49.0,23.2,29.93,South,171,9.0,13.0,36,0.00,,,0.00,Wunderground v.1.15,2013-04-06 22:37:00,
2013-04-06 18:42:00,48.9,23.1,29.93,SE,139,9.0,18.0,36,0.00,,,0.00,Wunderground v.1.15,2013-04-06 22:42:00,
2013-04-06 18:48:00,48.9,23.1,29.93,SE,135,11.0,18.0,36,0.00,,,0.00,Wunderground v.1.15,2013-04-06 22:48:00,
2013-04-06 18:55:00,48.9,23.7,29.92,East,89,9.0,10.0,37,0.00,,,0.00,Wunderground v.1.15,2013-04-06 22:55:00,
2013-04-06 19:00:00,48.9,23.7,29.92,East,88,8.0,10.0,37,0.00,,,0.00,Wunderground v.1.15,2013-04-06 23:00:00,
2013-04-06 19:06:00,48.8,23.6,29.92,East,101,8.0,10.0,37,0.00,,,0.00,Wunderground v.1.15,2013-04-06 23:06:00,
2013-04-06 19:12:00,48.8,23.6,29.92,West,265,7.0,7.0,37,0.00,,,0.00,Wunderground v.1.15,2013-04-06 23:12:00,
2013-04-06 19:17:00,48.7,23.6,29.91,SE,124,6.0,13.0,37,0.00,,,0.00,Wunderground v.1.15,2013-04-06 23:17:00,
2013-04-06 19:22:00,48.6,23.5,29.91,ESE,107,8.0,10.0,37,0.00,,,0.00,Wunderground v.1.15,2013-04-06 23:22:00,
2013-04-06 19:28:00,48.5,24.0,29.91,East,88,9.0,15.0,38,0.00,,,0.00,Wunderground v.1.15,2013-04-06 23:28:00,
2013-04-06 19:33:00,48.5,24.0,29.91,ESE,108,8.0,10.0,38,0.00,,,0.00,Wunderground v.1.15,2013-04-06 23:33:00,
2013-04-06 19:39:00,48.4,23.9,29.91,SE,144,9.0,12.0,38,0.00,,,0.00,Wunderground v.1.15,2013-04-06 23:39:00,
2013-04-06 19:44:00,48.4,23.9,29.91,ESE,120,9.0,12.0,38,0.00,,,0.00,Wunderground v.1.15,2013-04-06 23:44:00,
2013-04-06 19:50:00,48.3,23.8,29.90,SE,142,9.0,9.0,38,0.00,,,0.00,Wunderground v.1.15,2013-04-06 23:50:00,
2013-04-06 19:55:00,48.2,24.4,29.91,East,100,9.0,9.0,39,0.00,,,0.00,Wunderground v.1.15,2013-04-06 23:55:00,
2013-04-06 20:00:00,48.1,24.3,29.90,ESE,103,8.0,8.0,39,0.00,,,0.00,Wunderground v.1.15,2013-04-07 00:00:00,
2013-04-06 20:06:00,47.9,24.1,29.90,SSE,150,7.0,12.0,39,0.00,,,0.00,Wunderground v.1.15,2013-04-07 00:06:00,
2013-04-06 20:11:00,47.7,24.5,29.90,ENE,78,8.0,8.0,40,0.00,,,0.00,Wunderground v.1.15,2013-04-07 00:11:00,
2013-04-06 20:17:00,47.5,24.9,29.90,East,91,8.0,12.0,41,0.00,,,0.00,Wunderground v.1.15,2013-04-07 00:17:00,
2013-04-06 20:23:00,47.3,24.8,29.90,ENE,58,9.0,15.0,41,0.00,,,0.00,Wunderground v.1.15,2013-04-07 00:23:00,
2013-04-06 20:28:00,47.2,25.3,29.90,SE,127,9.0,15.0,42,0.00,,,0.00,Wunderground v.1.15,2013-04-07 00:28:00,
2013-04-06 20:34:00,47.0,25.1,29.90,ESE,121,7.0,9.0,42,0.00,,,0.00,Wunderground v.1.15,2013-04-07 00:34:00,
2013-04-06 20:39:00,46.9,25.0,29.90,SE,130,6.0,9.0,42,0.00,,,0.00,Wunderground v.1.15,2013-04-07 00:39:00,
2013-04-06 20:44:00,46.9,25.5,29.90,SE,140,6.0,7.0,43,0.00,,,0.00,Wunderground v.1.15,2013-04-07 00:44:00,
2013-04-06 20:50:00,46.9,25.5,29.90,ESE,104,6.0,10.0,43,0.00,,,0.00,Wunderground v.1.15,2013-04-07 00:50:00,
2013-04-06 20:55:00,46.8,25.5,29.89,SE,144,6.0,8.0,43,0.00,,,0.00,Wunderground v.1.15,2013-04-07 00:55:00,
2013-04-06 21:01:00,46.7,25.9,29.89,SE,137,6.0,6.0,44,0.00,,,0.00,Wunderground v.1.15,2013-04-07 01:01:00,
2013-04-06 21:06:00,46.6,25.8,29.89,ESE,109,6.0,11.0,44,0.00,,,0.00,Wunderground v.1.15,2013-04-07 01:06:00,
2013-04-06 21:11:00,46.5,25.7,29.89,ENE,78,6.0,6.0,44,0.00,,,0.00,Wunderground v.1.15,2013-04-07 01:11:00,
2013-04-06 21:16:00,46.5,25.7,29.88,East,79,7.0,11.0,44,0.00,,,0.00,Wunderground v.1.15,2013-04-07 01:16:00,
2013-04-06 21:21:00,46.4,25.6,29.88,SE,134,7.0,8.0,44,0.00,,,0.00,Wunderground v.1.15,2013-04-07 01:21:00,
2013-04-06 21:27:00,46.4,26.2,29.88,ESE,123,7.0,10.0,45,0.00,,,0.00,Wunderground v.1.15,2013-04-07 01:27:00,
2013-04-06 21:32:00,46.3,26.6,29.88,ESE,121,7.0,7.0,46,0.00,,,0.00,Wunderground v.1.15,2013-04-07 01:32:00,
2013-04-06 21:37:00,46.3,26.6,29.87,ESE,107,5.0,7.0,46,0.00,,,0.00,Wunderground v.1.15,2013-04-07 01:37:00,
2013-04-06 21:43:00,46.1,26.4,29.87,ESE,110,6.0,12.0,46,0.00,,,0.00,Wunderground v.1.15,2013-04-07 01:43:00,
2013-04-06 21:48:00,46.0,26.9,29.87,East,95,7.0,12.0,47,0.00,,,0.00,Wunderground v.1.15,2013-04-07 01:48:00,
2013-04-06 21:53:00,45.8,26.7,29.86,ESE,121,7.0,10.0,47,0.00,,,0.00,Wunderground v.1.15,2013-04-07 01:53:00,
2013-04-06 21:59:00,45.6,27.0,29.86,ESE,119,7.0,10.0,48,0.00,,,0.00,Wunderground v.1.15,2013-04-07 01:59:00,
2013-04-06 22:04:00,45.5,27.4,29.86,SE,130,6.0,7.0,49,0.00,,,0.00,Wunderground v.1.15,2013-04-07 02:04:00,
2013-04-06 22:10:00,45.5,27.4,29.87,SE,134,5.0,5.0,49,0.00,,,0.00,Wunderground v.1.15,2013-04-07 02:10:00,
2013-04-06 22:15:00,45.4,27.3,29.86,SE,128,4.0,5.0,49,0.00,,,0.00,Wunderground v.1.15,2013-04-07 02:15:00,
2013-04-06 22:21:00,45.4,27.8,29.86,SE,136,4.0,6.0,50,0.00,,,0.00,Wunderground v.1.15,2013-04-07 02:21:00,
2013-04-06 22:26:00,45.4,27.8,29.85,ESE,107,4.0,7.0,50,0.00,,,0.00,Wunderground v.1.15,2013-04-07 02:26:00,
2013-04-06 22:31:00,45.4,27.8,29.85,ESE,123,4.0,5.0,50,0.00,,,0.00,Wunderground v.1.15,2013-04-07 02:31:00,
2013-04-06 22:37:00,45.4,28.3,29.84,ESE,113,4.0,7.0,51,0.00,,,0.00,Wunderground v.1.15,2013-04-07 02:37:00,
2013-04-06 22:42:00,45.4,27.8,29.84,SE,126,4.0,5.0,50,0.00,,,0.00,Wunderground v.1.15,2013-04-07 02:42:00,
2013-04-06 22:48:00,45.4,28.3,29.83,SE,134,4.0,6.0,51,0.00,,,0.00,Wunderground v.1.15,2013-04-07 02:48:00,
2013-04-06 22:53:00,45.4,28.3,29.83,ESE,113,4.0,4.0,51,0.00,,,0.00,Wunderground v.1.15,2013-04-07 02:53:00,
2013-04-06 22:59:00,45.3,28.2,29.83,ESE,113,4.0,7.0,51,0.00,,,0.00,Wunderground v.1.15,2013-04-07 02:59:00,
2013-04-06 23:05:00,45.3,28.2,29.83,SE,132,4.0,6.0,51,0.00,,,0.00,Wunderground v.1.15,2013-04-07 03:05:00,
2013-04-06 23:10:00,45.4,28.3,29.82,ESE,111,4.0,4.0,51,0.00,,,0.00,Wunderground v.1.15,2013-04-07 03:10:00,
2013-04-06 23:16:00,45.4,28.3,29.82,ESE,109,3.0,4.0,51,0.00,,,0.00,Wunderground v.1.15,2013-04-07 03:16:00,
2013-04-06 23:21:00,45.4,28.3,29.82,SE,125,3.0,3.0,51,0.00,,,0.00,Wunderground v.1.15,2013-04-07 03:21:00,
2013-04-06 23:26:00,45.5,28.4,29.81,ESE,111,4.0,8.0,51,0.00,,,0.00,Wunderground v.1.15,2013-04-07 03:26:00,
2013-04-06 23:32:00,45.6,28.5,29.81,ESE,123,4.0,4.0,51,0.00,,,0.00,Wunderground v.1.15,2013-04-07 03:32:00,
2013-04-06 23:37:00,45.6,28.5,29.81,ESE,121,4.0,7.0,51,0.00,,,0.00,Wunderground v.1.15,2013-04-07 03:37:00,
2013-04-06 23:43:00,45.9,28.3,29.80,ESE,115,4.0,4.0,50,0.00,,,0.00,Wunderground v.1.15,2013-04-07 03:43:00,
2013-04-06 23:48:00,46.0,28.4,29.79,East,86,4.0,5.0,50,0.00,,,0.00,Wunderground v.1.15,2013-04-07 03:48:00,
2013-04-06 23:54:00,46.1,28.5,29.79,SE,129,3.0,9.0,50,0.00,,,0.00,Wunderground v.1.15,2013-04-07 03:54:00,
2013-04-06 23:59:00,46.3,28.2,29.79,ESE,120,4.0,9.0,49,0.00,,,0.00,Wunderground v.1.15,2013-04-07 03:59:00,